Time,TemperatureF,DewpointF,PressureIn,WindDirection,WindDirectionDegrees,WindSpeedMPH,WindSpeedGustMPH,Humidity,HourlyPrecipIn,Conditions,Clouds,dailyrainin,SoftwareType,DateUTC
2013-07-27 00:29:00,53.3,46.6,29.99,NNW,347,9.0,11.0,78,0.00,,,0.00,Wunderground v.1.15,2013-07-27 05:29:00,
2013-07-27 00:59:00,52.9,46.9,29.98,NNW,337,7.0,11.0,80,0.00,,,0.00,Wunderground v.1.15,2013-07-27 05:59:00,
2013-07-27 01:29:00,52.2,47.2,29.98,NW,315,5.0,5.0,83,0.00,,,0.00,Wunderground v.1.15,2013-07-27 06:29:00,
2013-07-27 01:59:00,51.9,46.9,29.98,NNW,346,6.0,6.0,83,0.00,,,0.00,Wunderground v.1.15,2013-07-27 06:59:00,
2013-07-27 02:29:00,52.0,46.3,29.98,NNW,339,5.0,5.0,81,0.00,,,0.00,Wunderground v.1.15,2013-07-27 07:29:00,
2013-07-27 02:59:00,51.6,46.0,29.98,NW,312,5.0,6.0,81,0.00,,,0.00,Wunderground v.1.15,2013-07-27 07:59:00,
2013-07-27 03:29:00,51.0,45.7,29.99,NW,310,4.0,14.0,82,0.00,,,0.00,Wunderground v.1.15,2013-07-27 08:29:00,
2013-07-27 03:59:00,49.9,44.9,29.98,NW,306,7.0,7.0,83,0.00,,,0.00,Wunderground v.1.15,2013-07-27 08:59:00,
2013-07-27 04:29:00,49.4,45.7,29.98,WNW,283,7.0,7.0,87,0.00,,,0.00,Wunderground v.1.15,2013-07-27 09:29:00,
2013-07-27 04:59:00,48.5,45.7,29.98,West,281,7.0,7.0,90,0.00,,,0.00,Wunderground v.1.15,2013-07-27 09:59:00,
2013-07-27 05:29:00,48.0,45.5,29.98,WNW,284,7.0,7.0,91,0.00,,,0.01,Wunderground v.1.15,2013-07-27 10:29:00,
2013-07-27 05:59:00,48.5,45.4,29.98,West,281,5.0,5.0,89,0.00,,,0.01,Wunderground v.1.15,2013-07-27 10:59:00,
2013-07-27 06:29:00,48.8,45.7,29.98,West,274,7.0,7.0,89,0.00,,,0.01,Wunderground v.1.15,2013-07-27 11:29:00,
2013-07-27 06:59:00,48.9,46.4,29.97,WNW,290,7.0,9.0,91,0.00,,,0.01,Wunderground v.1.15,2013-07-27 11:59:00,
2013-07-27 07:29:00,49.6,46.8,29.97,WNW,287,9.0,9.0,90,0.00,,,0.01,Wunderground v.1.15,2013-07-27 12:29:00,
2013-07-27 07:59:00,50.8,47.4,29.97,West,276,8.0,8.0,88,0.00,,,0.01,Wunderground v.1.15,2013-07-27 12:59:00,
2013-07-27 08:29:00,52.6,46.9,29.97,WNW,289,9.0,11.0,81,0.00,,,0.01,Wunderground v.1.15,2013-07-27 13:29:00,
2013-07-27 08:59:00,53.8,45.3,29.95,WNW,297,12.0,14.0,73,0.00,,,0.01,Wunderground v.1.15,2013-07-27 13:59:00,
2013-07-27 09:29:00,55.0,43.8,29.94,WNW,300,11.0,13.0,66,0.00,,,0.01,Wunderground v.1.15,2013-07-27 14:29:00,
2013-07-27 09:58:00,55.7,44.9,29.92,WNW,301,13.0,13.0,67,0.00,,,0.01,Wunderground v.1.15,2013-07-27 14:58:00,
2013-07-27 10:28:00,56.2,44.6,29.92,West,269,12.0,15.0,65,0.00,,,0.01,Wunderground v.1.15,2013-07-27 15:28:00,
2013-07-27 10:58:00,56.7,43.4,29.91,WNW,292,17.0,22.0,61,0.00,,,0.01,Wunderground v.1.15,2013-07-27 15:58:00,
2013-07-27 11:28:00,57.6,44.2,29.91,WNW,284,11.0,14.0,61,0.00,,,0.01,Wunderground v.1.15,2013-07-27 16:28:00,
2013-07-27 11:58:00,57.6,44.7,29.90,WNW,284,11.0,15.0,62,0.00,,,0.01,Wunderground v.1.15,2013-07-27 16:58:00,
2013-07-27 12:28:00,57.6,43.4,29.90,WNW,294,18.0,18.0,59,0.00,,,0.01,Wunderground v.1.15,2013-07-27 17:28:00,
2013-07-27 12:58:00,57.5,42.4,29.89,NW,324,11.0,13.0,57,0.00,,,0.01,Wunderground v.1.15,2013-07-27 17:58:00,
2013-07-27 13:28:00,57.6,43.8,29.89,WNW,288,10.0,10.0,60,0.00,,,0.01,Wunderground v.1.15,2013-07-27 18:28:00,
2013-07-27 13:58:00,56.6,43.3,29.90,NW,304,12.0,12.0,61,0.00,,,0.01,Wunderground v.1.15,2013-07-27 18:58:00,
2013-07-27 14:28:00,57.0,43.2,29.90,WNW,301,14.0,15.0,60,0.00,,,0.01,Wunderground v.1.15,2013-07-27 19:28:00,
2013-07-27 14:58:00,56.6,43.7,29.90,NW,307,15.0,15.0,62,0.00,,,0.01,Wunderground v.1.15,2013-07-27 19:58:00,
2013-07-27 15:28:00,55.7,45.7,29.90,North,355,13.0,13.0,69,0.00,,,0.01,Wunderground v.1.15,2013-07-27 20:28:00,
2013-07-27 15:58:00,55.6,45.6,29.90,WNW,289,14.0,14.0,69,0.00,,,0.01,Wunderground v.1.15,2013-07-27 20:58:00,
2013-07-27 16:28:00,55.7,47.5,29.89,WNW,290,10.0,10.0,74,0.00,,,0.01,Wunderground v.1.15,2013-07-27 21:28:00,
2013-07-27 16:58:00,55.4,48.3,29.89,WNW,299,10.0,10.0,77,0.00,,,0.01,Wunderground v.1.15,2013-07-27 21:58:00,
2013-07-27 17:27:00,54.8,49.7,29.89,WNW,284,9.0,9.0,83,0.00,,,0.01,Wunderground v.1.15,2013-07-27 22:27:00,
2013-07-27 17:58:00,54.5,50.7,29.88,West,275,9.0,9.0,87,0.00,,,0.02,Wunderground v.1.15,2013-07-27 22:58:00,
2013-07-27 18:28:00,55.0,49.9,29.87,WNW,285,10.0,10.0,83,0.00,,,0.02,Wunderground v.1.15,2013-07-27 23:28:00,
2013-07-27 18:58:00,55.3,50.2,29.87,WNW,300,10.0,10.0,83,0.00,,,0.02,Wunderground v.1.15,2013-07-27 23:58:00,
2013-07-27 19:28:00,55.1,50.4,29.87,West,269,6.0,7.0,84,0.00,,,0.02,Wunderground v.1.15,2013-07-28 00:28:00,
2013-07-27 19:58:00,55.0,50.3,29.86,West,277,8.0,8.0,84,0.00,,,0.02,Wunderground v.1.15,2013-07-28 00:58:00,
2013-07-27 20:28:00,54.8,49.7,29.86,WNW,291,9.0,9.0,83,0.00,,,0.02,Wunderground v.1.15,2013-07-28 01:28:00,
2013-07-27 20:58:00,54.4,49.7,29.86,WNW,296,10.0,11.0,84,0.00,,,0.02,Wunderground v.1.15,2013-07-28 01:58:00,
2013-07-27 21:28:00,53.2,50.9,29.87,WNW,300,4.0,4.0,92,0.05,,,0.03,Wunderground v.1.15,2013-07-28 02:28:00,
2013-07-27 21:58:00,53.3,50.4,29.87,West,275,9.0,9.0,90,0.00,,,0.04,Wunderground v.1.15,2013-07-28 02:58:00,
2013-07-27 22:28:00,53.3,51.0,29.87,WNW,296,8.0,8.0,92,0.00,,,0.04,Wunderground v.1.15,2013-07-28 03:28:00,
2013-07-27 22:58:00,53.2,50.9,29.88,WNW,284,5.0,6.0,92,0.00,,,0.05,Wunderground v.1.15,2013-07-28 03:58:00,
2013-07-27 23:28:00,52.6,49.1,29.88,NW,317,8.0,14.0,88,0.00,,,0.05,Wunderground v.1.15,2013-07-28 04:28:00,
2013-07-27 23:58:00,51.3,46.6,29.89,NW,315,9.0,10.0,84,0.00,,,0.05,Wunderground v.1.15,2013-07-28 04:58:00,